Location: Pordenone
(45.9640°N, 12.6580°E)
Time: 03:48:35
(UTC+02:00)

ISS - Pass Details

Date: 16 May 2021
Orbit: 417 x 422 km, 51.6° (Epoch: 14 June)

Event Time Altitude Azimuth Distance (km) Brightness Sun altitude
Rises 02:52:20 0° 297° (WNW) 2,373 0.1 -20.6°
Reaches altitude 10° 02:54:27 10° 301° (WNW) 1,507 -0.9 -20.4°
Maximum altitude 02:57:49 63° 24° (NNE) 475 -3.3 -20.1°
Drops below altitude 10° 03:01:10 10° 106° (ESE) 1,504 -0.8 -19.9°
Sets 03:03:17 0° 110° (ESE) 2,367 0.2 -19.7°
